| time (UTC) | temp F | wind direction | speed MPH | gust MPH | rain 1hr in | rain 24hr in | rain mn in | humidity % | barometer mb |
| 20260504173056 | 77 | 192 | 8.0 | 14.0 | 0.00 | 0.00 | 0.00 | 65 | 1017.1 |
| 20260504171602 | 77 | 204 | 9.0 | 15.0 | 0.00 | 0.00 | 0.00 | 66 | 1017.1 |
| 20260504160105 | 76 | 169 | 10.0 | 15.0 | 0.00 | 0.00 | 0.00 | 65 | 1017.8 |
| 20260504140107 | 74 | 137 | 10.0 | 14.0 | 0.00 | 0.00 | 0.00 | 68 | 1017.6 |
| 20260504120108 | 71 | 188 | 10.0 | 15.0 | 0.00 | 0.00 | 0.00 | 68 | 1017.4 |
| 20260504110104 | 70 | 126 | 9.0 | 14.0 | 0.00 | 0.00 | 0.00 | 62 | 1017.2 |
| 20260504100105 | 71 | 159 | 7.0 | 15.0 | 0.00 | 0.00 | 0.00 | 58 | 1017.7 |
| 20260504090123 | 71 | 131 | 10.0 | 17.0 | 0.00 | 0.00 | 0.00 | 57 | 1017.6 |
| 20260504081552 | 71 | 145 | 8.0 | 15.0 | 0.00 | 0.00 | 0.00 | 57 | 1018.0 |
| 20260504060106 | 71 | 120 | 12.0 | 19.0 | 0.00 | 0.00 | 0.00 | 55 | 1019.6 |
| 20260504050107 | 71 | 105 | 9.0 | 14.0 | 0.00 | 0.00 | 0.00 | 55 | 1020.1 |
| 20260504044554 | 71 | 126 | 9.0 | 14.0 | 0.00 | 0.00 | 0.00 | 54 | 1020.3 |
| 20260504043057 | 71 | 159 | 8.0 | 15.0 | 0.00 | 0.00 | 0.00 | 54 | 1020.2 |
| 20260504041556 | 71 | 122 | 9.0 | 15.0 | 0.00 | 0.00 | 0.00 | 53 | 1019.9 |
| 20260504034555 | 71 | 123 | 8.0 | 13.0 | 0.00 | 0.00 | 0.00 | 54 | 1020.1 |
| 20260504033106 | 71 | 113 | 6.0 | 11.0 | 0.00 | 0.00 | 0.00 | 53 | 1020.1 |
| 20260504031602 | 71 | 124 | 7.0 | 13.0 | 0.00 | 0.00 | 0.00 | 53 | 1020.0 |
| 20260504030056 | 71 | 123 | 7.0 | 12.0 | 0.00 | 0.00 | 0.00 | 52 | 1020.1 |
| 20260504024600 | 71 | 134 | 8.0 | 12.0 | 0.00 | 0.00 | 0.00 | 53 | 1020.1 |
| 20260504023054 | 71 | 126 | 7.0 | 12.0 | 0.00 | 0.00 | 0.00 | 51 | 1020.1 |
| 20260504021556 | 71 | 133 | 7.0 | 11.0 | 0.00 | 0.00 | 0.00 | 52 | 1020.1 |
| 20260504020054 | 71 | 126 | 6.0 | 10.0 | 0.00 | 0.00 | 0.00 | 52 | 1019.9 |
| 20260504014559 | 71 | 140 | 6.0 | 10.0 | 0.00 | 0.00 | 0.00 | 51 | 1020.2 |
| 20260504013106 | 71 | 106 | 6.0 | 11.0 | 0.00 | 0.00 | 0.00 | 52 | 1020.0 |
| 20260504011554 | 71 | 132 | 7.0 | 11.0 | 0.00 | 0.00 | 0.00 | 51 | 1020.1 |
| 20260504010057 | 71 | 108 | 6.0 | 10.0 | 0.00 | 0.00 | 0.00 | 52 | 1020.1 |
| 20260504004613 | 72 | 134 | 6.0 | 9.0 | 0.00 | 0.00 | 0.00 | 50 | 1020.1 |
| 20260504003057 | 72 | 134 | 5.0 | 10.0 | 0.00 | 0.00 | 0.00 | 50 | 1019.8 |
| 20260504001558 | 72 | 119 | 5.0 | 10.0 | 0.00 | 0.00 | 0.00 | 51 | 1020.1 |
| 20260504000056 | 73 | 138 | 6.0 | 11.0 | 0.00 | 0.00 | 0.00 | 48 | 1020.0 |
| 20260503234555 | 73 | 131 | 7.0 | 10.0 | 0.00 | 0.00 | 0.00 | 48 | 1020.3 |
| 20260503233102 | 73 | 136 | 4.0 | 10.0 | 0.00 | 0.00 | 0.00 | 48 | 1020.3 |
| 20260503231557 | 74 | 126 | 5.0 | 11.0 | 0.00 | 0.00 | 0.00 | 50 | 1020.4 |
| 20260503230059 | 74 | 109 | 4.0 | 12.0 | 0.00 | 0.00 | 0.00 | 50 | 1020.6 |
| 20260503224558 | 74 | 126 | 7.0 | 12.0 | 0.00 | 0.00 | 0.00 | 49 | 1020.8 |
| 20260503223100 | 74 | 142 | 7.0 | 11.0 | 0.00 | 0.00 | 0.00 | 49 | 1020.9 |
| 20260503221558 | 74 | 137 | 7.0 | 13.0 | 0.00 | 0.00 | 0.00 | 49 | 1021.0 |
| 20260503214601 | 75 | 152 | 5.0 | 11.0 | 0.00 | 0.00 | 0.00 | 46 | 1021.1 |
| 20260503213055 | 74 | 123 | 6.0 | 12.0 | 0.00 | 0.00 | 0.00 | 44 | 1021.3 |
| 20260503211604 | 75 | 129 | 5.0 | 9.0 | 0.00 | 0.00 | 0.00 | 46 | 1021.3 |
| 20260503210055 | 74 | 136 | 6.0 | 12.0 | 0.00 | 0.00 | 0.00 | 45 | 1021.6 |
| 20260503204555 | 74 | 108 | 7.0 | 12.0 | 0.00 | 0.00 | 0.00 | 47 | 1021.7 |
| 20260503203055 | 74 | 124 | 6.0 | 12.0 | 0.00 | 0.00 | 0.00 | 46 | 1022.1 |
| 20260503201558 | 74 | 99 | 7.0 | 12.0 | 0.00 | 0.00 | 0.00 | 44 | 1022.3 |
| 20260503200056 | 75 | 126 | 6.0 | 11.0 | 0.00 | 0.00 | 0.00 | 45 | 1022.5 |
| 20260503194557 | 75 | 115 | 7.0 | 11.0 | 0.00 | 0.00 | 0.00 | 45 | 1022.7 |
| 20260503193100 | 75 | 144 | 7.0 | 14.0 | 0.00 | 0.00 | 0.00 | 44 | 1023.0 |
| 20260503191557 | 75 | 115 | 6.0 | 12.0 | 0.00 | 0.00 | 0.00 | 47 | 1023.3 |
| 20260503190057 | 75 | 95 | 8.0 | 13.0 | 0.00 | 0.00 | 0.00 | 46 | 1023.5 |
| 20260503184608 | 75 | 128 | 5.0 | 10.0 | 0.00 | 0.00 | 0.00 | 41 | 1023.6 |
| 20260503183054 | 75 | 126 | 6.0 | 9.0 | 0.00 | 0.00 | 0.00 | 45 | 1023.8 |
| 20260503181601 | 75 | 101 | 6.0 | 11.0 | 0.00 | 0.00 | 0.00 | 44 | 1023.9 |
| 20260503180058 | 75 | 100 | 6.0 | 9.0 | 0.00 | 0.00 | 0.00 | 45 | 1024.1 |
| 20260503174608 | 75 | 72 | 7.0 | 12.0 | 0.00 | 0.00 | 0.00 | 42 | 1024.1 |